FW2418 Weather Reports


Display with metric or nautical units.
time (UTC)temp
F
wind
direction
speed
MPH
gust
MPH
rain 1hr
in
rain 24hr
in
rain mn
in
humidity
%
barometer
mb
20260905110554 76 127 0.0 0.0 0.00 0.25 0.01 100 1011.6
20260905105522 76 127 0.0 0.0 0.00 0.25 0.01 100 1011.3
20260905104522 76 127 0.0 0.0 0.00 0.25 0.01 100 1011.3
20260905103521 76 127 0.0 0.0 0.00 0.25 0.01 100 1010.9
20260905102520 75 127 0.0 0.0 0.00 0.25 0.01 100 1010.9
20260905101519 75 127 0.0 0.0 0.00 0.25 0.01 100 1010.9
20260905100518 75 127 0.0 0.0 0.00 0.25 0.01 100 1010.9
20260905095517 75 127 0.0 0.0 0.00 0.25 0.01 100 1010.9
20260905094516 75 127 0.0 0.0 0.01 0.25 0.01 100 1010.9
20260905093516 75 127 0.0 0.0 0.01 0.25 0.01 100 1010.9
20260905092515 75 127 0.0 0.0 0.01 0.25 0.01 100 1010.9
20260905091514 74 127 0.0 0.0 0.01 0.25 0.01 99 1011.3
20260905090514 74 127 0.0 0.0 0.01 0.25 0.01 99 1011.3
20260905085513 75 127 0.0 0.0 0.01 0.25 0.01 99 1011.3
20260905084441 75 127 0.0 0.0 0.00 0.24 0.00 99 1011.3
20260905083440 75 127 0.0 0.0 0.00 0.24 0.00 99 1011.3
20260905082408 75 127 0.0 0.0 0.00 0.24 0.00 99 1011.3
20260905081407 75 127 0.0 0.0 0.00 0.24 0.00 99 1011.3
20260905080406 75 127 0.0 0.0 0.00 0.24 0.00 99 1011.3
20260905075405 75 127 0.0 0.0 0.00 0.24 0.00 99 1011.3
20260905074404 75 127 0.0 0.0 0.00 0.24 0.00 99 1011.3
20260905073301 75 127 0.0 0.0 0.00 0.24 0.00 99 1011.0
20260905072300 75 127 0.0 0.0 0.00 0.24 0.00 99 1011.0
20260905071259 75 127 0.0 0.0 0.00 0.24 0.00 99 1011.0
20260905070259 75 127 0.0 0.0 0.00 0.24 0.00 99 1011.3
20260905065258 75 127 0.0 0.0 0.00 0.24 0.00 99 1011.3
20260905064226 76 127 0.0 0.0 0.00 0.24 0.00 99 1011.7
20260905063225 76 127 0.0 0.0 0.00 0.24 0.00 99 1011.7
20260905062224 76 127 0.0 0.0 0.00 0.24 0.00 99 1011.7
20260905061223 76 127 0.0 0.0 0.00 0.24 0.00 99 1012.0
20260905060222 76 127 0.0 0.0 0.00 0.24 0.00 99 1012.0
20260905055221 76 127 0.0 0.0 0.00 0.24 0.00 99 1012.0
20260905054150 76 127 0.0 0.0 0.00 0.24 0.00 99 1012.0
20260905053149 76 127 0.0 0.0 0.00 0.24 0.00 99 1012.4
20260905052046 76 127 0.0 0.0 0.00 0.24 0.00 99 1012.4
20260905051045 76 127 0.0 0.0 0.00 0.24 0.00 99 1012.4
20260905050044 76 127 0.0 1.0 0.00 0.24 0.00 99 1012.4
20260905045044 76 127 0.0 1.0 0.00 0.24 0.00 99 1012.7
20260905044043 76 127 0.0 0.0 0.00 0.24 0.00 99 1012.7
20260905043042 76 127 0.0 0.0 0.00 0.24 0.00 99 1012.7
20260905042041 76 127 0.0 0.0 0.00 0.24 0.00 99 1012.7
20260905041040 76 127 0.0 0.0 0.00 0.24 0.00 99 1012.7
20260905040008 76 127 0.0 0.0 0.00 0.24 0.24 99 1012.7
20260905034905 76 127 0.0 0.0 0.00 0.24 0.24 99 1012.7
20260905033904 76 127 0.0 0.0 0.00 0.24 0.24 99 1012.7
20260905032903 75 127 0.0 1.0 0.00 0.24 0.24 98 1012.7
20260905031903 75 127 0.0 1.0 0.00 0.24 0.24 99 1012.7
20260905030902 75 127 0.0 1.0 0.00 0.24 0.24 98 1013.0
20260905025901 75 144 0.0 0.0 0.00 0.24 0.24 98 1013.0
20260905024829 75 143 0.0 0.0 0.00 0.24 0.24 98 1013.0
20260905023828 75 144 0.0 0.0 0.00 0.24 0.24 98 1013.0
20260905022756 75 144 0.0 1.0 0.00 0.24 0.24 98 1013.0
20260905021755 75 143 0.0 1.0 0.00 0.24 0.24 98 1013.0
20260905020754 75 142 1.0 2.0 0.01 0.24 0.24 98 1013.0
20260905015753 76 356 1.0 2.0 0.02 0.24 0.24 98 1013.0
20260905014753 76 30 1.0 2.0 0.04 0.24 0.24 98 1013.0
20260905013752 76 101 1.0 2.0 0.06 0.24 0.24 98 1013.0
20260905012720 76 85 0.0 1.0 0.08 0.24 0.24 98 1013.0
20260905011648 76 18 0.0 2.0 0.09 0.24 0.24 98 1012.7
20260905010616 76 50 1.0 2.0 0.10 0.23 0.23 98 1012.7
20260905005615 76 20 1.0 2.0 0.11 0.22 0.22 98 1012.7
20260905004614 76 66 1.0 2.0 0.10 0.20 0.20 98 1012.7
20260905003543 76 124 0.0 1.0 0.07 0.17 0.17 98 1012.3
20260905002542 76 124 0.0 0.0 0.07 0.16 0.16 98 1012.3
20260905001510 76 124 0.0 0.0 0.05 0.14 0.14 97 1012.3
20260905000509 76 128 0.0 0.0 0.04 0.13 0.13 97 1012.3
20260904235508 76 129 0.0 1.0 0.02 0.11 0.11 97 1012.6
20260904234507 76 148 1.0 1.0 0.01 0.10 0.10 97 1012.3
20260904233506 76 121 0.0 1.0 0.02 0.10 0.10 96 1012.3
20260904232506 76 169 0.0 3.0 0.02 0.09 0.09 96 1012.6
20260904231433 77 114 2.0 4.0 0.03 0.09 0.09 96 1013.0
20260904230433 77 220 1.0 4.0 0.03 0.09 0.09 97 1013.0
20260904225432 78 119 1.0 3.0 0.03 0.09 0.09 97 1013.0
20260904224431 78 110 1.0 1.0 0.04 0.09 0.09 97 1013.0
20260904223430 78 115 0.0 1.0 0.06 0.08 0.08 97 1013.0
20260904222429 78 94 1.0 1.0 0.07 0.07 0.07 96 1013.0
20260904221428 78 131 1.0 2.0 0.06 0.06 0.06 96 1012.7
20260904220427 78 120 1.0 3.0 0.06 0.06 0.06 95 1012.0
20260904215356 78 78 1.0 3.0 0.06 0.06 0.06 94 1011.6
20260904214355 79 103 1.0 5.0 0.05 0.05 0.05 93 1011.3
20260904213354 80 311 0.0 7.0 0.02 0.02 0.02 89 1011.3
20260904212353 82 278 2.0 9.0 0.00 0.00 0.00 81 1010.3
20260904211352 87 265 4.0 9.0 0.00 0.00 0.00 74 1011.0
20260904210352 91 197 2.0 5.0 0.00 0.00 0.00 75 1011.0
20260904205351 93 61 2.0 5.0 0.00 0.00 0.00 71 1010.7
20260904204350 93 132 0.0 5.0 0.00 0.00 0.00 61 1010.7
20260904203349 93 168 1.0 8.0 0.00 0.00 0.00 63 1010.7
20260904202348 94 175 4.0 8.0 0.00 0.00 0.00 61 1010.7
20260904201347 94 222 0.0 7.0 0.00 0.00 0.00 63 1010.7
20260904200346 95 237 1.0 7.0 0.00 0.00 0.00 61 1010.7
20260904195345 95 136 0.0 9.0 0.00 0.00 0.00 61 1011.0
20260904194242 95 206 1.0 9.0 0.00 0.00 0.00 59 1011.0
20260904193241 96 173 2.0 9.0 0.00 0.00 0.00 59 1011.0
20260904192240 96 182 2.0 8.0 0.00 0.00 0.00 59 1011.3
20260904191239 96 174 3.0 8.0 0.00 0.00 0.00 59 1011.3
20260904190238 97 177 2.0 8.0 0.00 0.00 0.00 58 1011.7
20260904185237 96 165 3.0 8.0 0.00 0.00 0.00 61 1011.7
20260904184236 96 238 1.0 9.0 0.00 0.00 0.00 60 1012.0
20260904183235 96 176 3.0 9.0 0.00 0.00 0.00 59 1012.4
20260904182204 96 230 1.0 7.0 0.00 0.00 0.00 61 1012.4
20260904181131 95 163 3.0 7.0 0.00 0.00 0.00 61 1012.4
20260904180059 94 210 1.0 4.0 0.00 0.00 0.00 62 1012.4
20260904175027 94 171 2.0 5.0 0.00 0.00 0.00 63 1012.7
20260904174026 93 168 2.0 9.0 0.00 0.00 0.00 65 1012.7
20260904173025 95 117 2.0 9.0 0.00 0.00 0.00 60 1012.7
20260904172024 96 172 2.0 8.0 0.00 0.00 0.00 62 1013.0
20260904171024 95 167 1.0 8.0 0.00 0.00 0.00 61 1013.0
20260904170023 94 207 2.0 5.0 0.00 0.00 0.00 65 1013.4
20260904165022 93 329 1.0 6.0 0.00 0.00 0.00 67 1013.4
20260904163949 93 172 2.0 7.0 0.00 0.00 0.00 66 1013.4
20260904162917 93 205 2.0 7.0 0.00 0.00 0.00 67 1013.4
20260904161917 92 166 3.0 6.0 0.00 0.00 0.00 70 1013.4
20260904160845 92 176 3.0 6.0 0.00 0.00 0.00 70 1013.7
20260904155813 92 242 1.0 9.0 0.00 0.00 0.00 69 1013.7
20260904154812 92 177 4.0 8.0 0.00 0.00 0.00 71 1013.7
20260904153811 91 141 2.0 6.0 0.00 0.00 0.00 73 1013.7
20260904152810 92 124 3.0 6.0 0.00 0.00 0.00 72 1013.7
20260904151810 91 177 2.0 6.0 0.00 0.00 0.00 72 1013.7
20260904150809 91 188 3.0 6.0 0.00 0.00 0.00 73 1013.7
20260904145737 90 138 2.0 5.0 0.00 0.00 0.00 73 1013.7
20260904144736 90 180 1.0 6.0 0.00 0.00 0.00 76 1013.7
20260904143735 89 153 2.0 6.0 0.00 0.00 0.00 78 1013.7
20260904142734 89 178 2.0 5.0 0.00 0.00 0.00 78 1013.7
20260904141702 88 180 1.0 3.0 0.00 0.00 0.00 80 1013.4
20260904140701 87 122 0.0 4.0 0.00 0.01 0.00 82 1013.4
20260904135700 87 267 1.0 4.0 0.00 0.02 0.00 83 1013.4
20260904134659 86 159 2.0 4.0 0.00 0.02 0.00 84 1013.4
20260904133627 86 124 1.0 3.0 0.00 0.02 0.00 86 1013.4
20260904132626 85 174 1.0 2.0 0.00 0.02 0.00 87 1013.4
20260904131626 84 122 1.0 2.0 0.00 0.02 0.00 88 1013.4
20260904130625 84 115 1.0 1.0 0.00 0.02 0.00 91 1013.4
20260904125624 83 162 0.0 1.0 0.00 0.02 0.00 93 1013.4
20260904124623 81 159 1.0 1.0 0.00 0.02 0.00 95 1013.4
20260904123622 80 124 0.0 0.0 0.00 0.02 0.00 100 1013.0
20260904122550 78 124 0.0 0.0 0.00 0.02 0.00 100 1013.0
20260904121549 76 124 0.0 0.0 0.00 0.02 0.00 100 1013.0
20260904120549 75 124 0.0 0.0 0.00 0.02 0.00 100 1013.0
20260904115548 75 126 0.0 0.0 0.00 0.02 0.00 99 1012.7
20260904114516 75 125 0.0 0.0 0.00 0.02 0.00 99 1013.0
20260904113515 75 126 0.0 0.0 0.00 0.02 0.00 99 1012.7
20260904112514 75 125 0.0 0.0 0.00 0.02 0.00 99 1012.7
20260904111514 75 125 0.0 0.0 0.00 0.02 0.00 99 1012.3